Tracking 29528 objects as of 14-Sep-2024
HD Live streaming from Space Station
objects crossing your sky now

COSMOS 1823 DEB

Track COSMOS 1823 DEB now!
10-day predictions


NORAD ID: 29357
Int'l Code: 1987-020DY
Perigee: 1,158.3 km
Apogee: 1,495.5 km
Inclination: 73.8 °
Period: 112.0 minutes
Semi major axis: 7697 km
RCS: 0.003 m2 (small)
Launch date: February 20, 1987
Source: Commonwealth of Independent States (former USSR) (CIS)
Launch site: PLESETSK MISSILE AND SPACE COMPLEX (PKMTR)

Note: This is SATELLITE DEBRIS
Your satellite tracking list
Your tracking list is empty




NASA's NSSDC Master Catalog

Two Line Element Set (TLE):
1 29357U 87020DY  24256.41070547  .00000123  00000-0  51771-3 0  9990
2 29357  73.7929 317.1371 0219017  83.5432 291.3221 12.85425987519661
Source of the keplerian elements: AFSPC